#timestamp,LO_Frequency,Hit,StdDev 
1598061615.4,286046999.0,N
1598061635.2,286046998.7,N
1598061655.1,286046999.4,N
1598061656.0,286046999.4,N
1598061675.8,286046998.7,N
1598061695.6,286046998.8,N
1598061715.5,286046998.8,N
1598061735.3,286046998.6,N
1598061755.2,286046999.1,N
1598061775.9,286046999.1,N
1598061795.7,286046996.6,Y
1598061815.6,286047000.8,P
1598061835.4,286047001.1,N
1598061855.2,286046998.5,N
1598061875.1,286046998.3,N
1598061876.0,286046998.3,N
1598061895.8,286046998.3,N
1598061915.7,286046999.3,N
1598061935.5,286047000.9,N
1598061955.3,286046996.6,Y
1598061975.2,286046999.1,P
1598061995.0,286046999.4,P
1598061995.9,286046999.4,P
1598062015.8,286046998.9,Y
1598062035.6,286047000.4,P
1598062055.4,286047001.1,N
1598062075.3,286046998.7,N
1598062095.1,286047001.1,N
1598062115.8,286047000.6,N
1598062135.7,286047001.1,N
1598062155.5,286047000.7,N
1598062175.4,286046998.5,N
1598062195.2,286047001.0,N
1598062215.0,286047000.0,N
1598062215.9,286047000.0,N
1598062235.8,286047000.9,N
1598062255.6,286047000.4,N
1598062275.4,286047000.5,N
1598062295.3,286047000.6,N
1598062315.1,286047001.1,N
1598062335.9,286047001.1,N
1598062355.7,286046999.7,N
1598062375.5,286047000.3,N
1598062395.4,286047000.3,N
1598062415.2,286047000.1,N
1598062435.1,286047002.7,Y
1598062436.0,286047002.7,P
1598062455.8,286047000.0,N
1598062475.6,286047000.9,N
1598062495.5,286047000.5,N
1598062515.3,286046999.9,N
1598062535.1,286046999.8,N
1598062555.9,286046999.8,N
1598062575.7,286047002.8,Y
1598062595.6,286046998.1,P
1598062615.4,286047000.1,N
1598062635.2,286046999.7,N
1598062655.1,286047002.4,N
1598062656.0,286047002.4,N
1598062675.8,286047002.6,N
1598062695.7,286046999.8,N
1598062715.5,286046999.9,N
1598062735.3,286047000.1,N
1598062755.2,286047000.0,N
1598062775.0,286047000.0,N
1598062775.9,286047000.0,N
1598062795.7,286046999.9,N
1598062815.6,286047000.2,N
1598062835.4,286046999.8,N
1598062855.3,286047002.8,N
1598062875.1,286047002.4,N
1598062895.8,286047000.3,N
1598062915.7,286047000.1,N
1598062935.5,286047002.5,N
1598062955.4,286047002.0,N
1598062975.2,286047002.0,N
1598062995.0,286047004.3,Y
1598062995.9,286047004.3,P
1598063015.8,286047002.0,N
1598063035.6,286047002.0,N
1598063055.4,286047002.5,N
1598063075.3,286047002.4,N
1598063095.1,286047002.4,N
1598063115.9,286047000.5,N
1598063135.7,286047000.0,N
1598063155.5,286047000.3,N
1598063175.4,286046999.8,N
1598063195.2,286047000.1,N
1598063215.0,286047002.8,N
1598063216.0,286047002.8,N
1598063235.8,286047002.8,N
1598063255.6,286047000.0,N
1598063275.5,286046999.9,N
1598063295.3,286047000.2,N
1598063315.1,286047000.5,N
1598063335.9,286047000.1,N
1598063355.7,286047000.4,N
1598063375.6,286047000.1,N
1598063395.4,286047000.6,N
1598063415.2,286047000.2,N
1598063435.1,286047000.2,N
1598063436.0,286047000.2,N
1598063455.8,286047000.1,N
1598063475.6,286047000.0,N
1598063495.5,286047000.5,N
1598063515.3,286046999.7,N
1598063535.2,286047002.4,N
1598063555.9,286047002.3,N
1598063575.7,286047002.3,N
1598063595.6,286047002.3,N
1598063615.4,286047002.4,N
1598063635.2,286046999.8,N
1598063655.1,286047000.1,N
1598063656.0,286047000.1,N
1598063675.8,286047000.2,N
1598063695.7,286047000.1,N
1598063715.5,286047002.4,N
1598063735.3,286047002.4,N
1598063755.2,286047002.5,N
1598063775.0,286047001.9,N
1598063775.9,286047001.9,N
1598063795.8,286047001.9,N
1598063815.6,286047002.4,N
1598063835.4,286047001.6,N
1598063855.3,286047001.8,N
1598063875.1,286047002.2,N
1598063895.8,286047001.5,N
1598063915.7,286047001.9,N
1598063935.5,286047002.3,N
1598063955.4,286047002.6,N
1598063975.2,286047001.5,N
1598063995.0,286047002.5,N
1598063995.9,286047002.5,N
1598064015.8,286047002.5,N
1598064035.6,286047001.6,N
1598064055.4,286047002.4,N
1598064075.3,286047002.2,N
1598064095.1,286047002.2,N
1598064115.9,286047002.2,N
1598064135.7,286047002.7,Y
1598064155.5,286047001.0,P
1598064175.4,286047001.0,N
1598064195.2,286047000.5,N
1598064215.1,286047000.3,N
1598064216.0,286047000.3,N
1598064235.8,286046999.9,N
1598064255.6,286047000.6,N
1598064275.5,286047001.0,N
1598064295.3,286047000.8,N
1598064315.1,286047001.0,N
1598064335.9,286047001.1,N
1598064355.7,286047001.2,N
1598064375.6,286046998.2,Y
1598064395.4,286046998.9,P
1598064415.2,286046999.3,N
1598064435.1,286046998.2,N
1598064436.0,286046998.2,N
1598064455.8,286046999.1,N
1598064475.7,286046998.2,N
1598064495.5,286046998.3,N
1598064515.3,286046998.7,N
1598064535.2,286046998.9,N
1598064555.0,286046998.1,N
1598064555.9,286046998.1,N
1598064575.7,286046998.7,N
1598064595.6,286046998.2,N
1598064615.4,286046998.6,N
1598064635.3,286046998.6,N
1598064655.1,286046998.8,N
1598064675.8,286046999.2,N
1598064695.7,286046999.6,N
1598064715.5,286046999.3,N
1598064735.4,286046996.7,Y
1598064755.2,286046998.8,P
1598064775.0,286046998.2,P
1598064775.9,286046998.2,P
1598064795.8,286046999.1,Y
1598064815.6,286047000.6,P
1598064835.5,286047001.1,N
1598064855.3,286047000.5,N
1598064875.1,286047000.8,N
1598064895.9,286047000.8,N
1598064915.7,286046998.1,N
1598064935.6,286046999.4,N
1598064955.4,286046999.3,N
1598064975.2,286046998.7,N
1598064995.1,286046999.3,N
1598064996.0,286046999.3,N
1598065015.8,286047001.2,N
1598065035.6,286046998.2,N
1598065055.5,286046998.5,N
1598065075.3,286046998.2,N
1598065095.2,286046998.7,N
1598065115.9,286046998.8,N
1598065135.7,286046999.3,N
1598065155.6,286046999.0,N
1598065175.4,286046998.8,N
1598065195.2,286046998.7,N
